Hourly Data Report for February 16, 2012

HALIFAX STANFIELD INT'L A
NOVA SCOTIA

44°52'48.060" N
63°30'00.050" W
145.40 m
8202250
71395
YHZ

Download Data

Hourly Data (February 2012)
Hourly Data Report for February 16, 2012
TIME
LST
Temp Definition
°C
Dew Point Definition
°C
Rel Hum Definition
%
Precip. Amount Definition
mm

Wind Dir Definition
10's deg

Wind Spd Definition
km/h
Visibility Definition
km
Stn Press Definition
kPa
Hmdx Definition


Wind Chill Definition


Weather Definition


00:00 0.1 -0.2 98   36 7 0.6 100.36     Fog
01:00 -1.3 -1.4 99   33 7 0.4 100.37   -4 Freezing Fog
02:00 -2.0 -2.6 96   36 7 0.4 100.40   -5 Freezing Fog
03:00 -1.9 -2.3 97   6 9 0.4 100.39   -5 Freezing Fog
04:00 -2.0 -2.4 97   35 6 0.4 100.39   -4 Freezing Fog
05:00 -2.1 -2.6 96   36 7 0.4 100.39   -5 Freezing Fog
06:00 -2.1 -2.7 96   35 7 0.4 100.40   -5 Freezing Fog
07:00 -2.2 -2.6 97   1 9 1.2 100.40   -6 Fog
08:00 -1.1 -1.4 98   35 9 3.2 100.46   -4 Fog
09:00 -0.5 -0.6 99   1 13 0.4 100.45   -5 Freezing Fog
10:00 -0.1 -0.2 99   36 17 0.8 100.43   -5 Freezing Fog
11:00 -0.1 -0.2 99   1 19 2.4 100.45   -5 Fog
12:00 0.2 0.1 99   1 17 8.0 100.40     Fog
13:00 0.9 0.1 94   35 13 16.1 100.34     Mostly Cloudy
14:00 1.1 -0.5 89   1 19 24.1 100.30     Cloudy
15:00 1.5 -0.7 85   36 19 24.1 100.25     Cloudy
16:00 1.2 -0.9 86   35 15 24.1 100.22     Cloudy
17:00 0.7 -1.0 88   36 13 24.1 100.20     Cloudy
18:00 0.3 -1.9 85   1 15 24.1 100.24     Cloudy
19:00 -0.5 -2.3 88   2 15 24.1 100.24   -5 Cloudy
20:00 -1.3 -3.2 87   36 13 24.1 100.22   -6 Mainly Clear
21:00 -1.8 -3.5 88   36 15 24.1 100.20   -7 Mostly Cloudy
22:00 -2.4 -3.8 90   35 9 24.1 100.22   -6 Mostly Cloudy
23:00 -2.4 -3.6 91   35 15 24.1 100.16   -7 Mostly Cloudy

Notes on Data Quality.

Legend

  • E = Estimated
  • M = Missing
  • NA = Not Available*
  • [empty] = Indicates an unobserved value
Date modified: